Showing default

JILIN-01 GAOFEN 2A, 44777

Orbit data source: Space-Track

JILIN-01 GAOFEN 2A, 44777 is a payload satellite owned by Changguang WJ (CN) in SSO that was launched on Wed, 13 Nov 2019 UTC via a KUAIZHOU-1A launch vehicle from the Jiuquan Satellite Launch Center, China (JSC). Payload-class satellites include a variety of spacecraft equipped with specific instruments for various scientific and technological missions. These include communications satellites like Starlink; space stations such as the ISS; scientific satellites like the Hubble; Earth observation satellites from companies like Planet Labs, Umbra, and HawkEye 360; GPS; miniature CubeSats for education and research; and military/defense satellites.

Loading next visibility...
Identifier
44777, 2019-075A
Orbit
SSO
Country
Flag of CNCN / PRC
Related business
Manufacturer
Changguang WJ
Mission
Operational Commercial Imaging
Bus & Motor
JL-1, Unknown motor
Mass
230 kg wet, 230 kg dry
Launch date (UTC)
2019-11-13 (6 years ago)
Launch vehicle
KUAIZHOU-1A
Launch site
Jiuquan Satellite Launch Center, China (JSC)
Object type
Payload
Rocket body
Debris
Shape & HBR
Box + 2 Pan, 0.8 m
Radar Cross Section
2.000 m², Large (>1 m²)

Expand to show TLE details & history
Last TLE update: 15 hours ago

TLE from 15 hours ago
0 JILIN-01 GAOFEN 2A
1 44777U 19075A   25347.00553806  .00020553  00000-0  63859-3 0  9998
2 44777  97.5152  62.1132 0008013  36.6061 323.5727 15.33350773336298
Epoch: 2025-12-13T00:07Z
TLE epoch observation values (Epoch: 2025-12-13T00:07:58.488Z)
Latitude
-0.00003°
Longitude
-21.81951°
Altitude
464.517 km
Speed
7.637 km/s
True Right ascension
04h 08m 27s
True Declination
0° 00' 00"
Sunlit
Object was in full shadow at epoch
Visualization orbit readout
Latitude
Unknown
Longitude
Unknown
Altitude
Unknown
Speed
Unknown
Apparent Right ascension
Unknown
Apparent Declination
Unknown
Sunlit
N/A
Visualization observer readout
Local Sidereal Time
13:38:12
Azimuth
Unknown
Elevation
Unknown
Doppler factor
Unknown
Orbital elements
Apogee altitude
468.258 km
Perigee altitude
457.295 km
Semi-major axis
6,840.913 km
Eccentricity
0.0008
Inclination
97.5152°
RAAN
62.1132°
Arg. of periapsis
36.6061°
True anomaly
323.51813°
Mean anomaly
323.5727°
Eccentric anomaly
323.54542°
Mean motion
3.83594 °/min
Orbital period
93.85 mins
BSTAR
0.00063859
Loading maneuver chart data...
Computing Atmospheric mass density...
Loading historical data...
Loading historical data...
Loading historical data...
Loading historical data...
Loading historical data...
Loading historical data...
Loading historical data...
Other satellites on launch #75 in the year 2019 (2019-11-13 UTC)

Documentation

Showing up to 5 results
|